Tracking 19177 objects as of 24-May-2018
HD Live streaming from Space Station
objects crossing your sky now

COSMOS 1434

Track COSMOS 1434 now!
10-day predictions
COSMOS 1434 is classified as:


NORAD ID: 13766
Int'l Code: 1983-002F
Perigee: 1,437.7 km
Apogee: 1,474.1 km
Inclination: 74.0 °
Period: 114.9 minutes
Semi major axis: 7826 km
RCS: 0.659 m2 (medium)
Launch date: January 19, 1983
Source: Commonwealth of Independent States (former USSR) (CIS)
Launch site: PLESETSK MISSILE AND SPACE COMPLEX (PKMTR)
aabbcc
Your satellite tracking list
Your tracking list is empty




NASA's NSSDC Master Catalog

Two Line Element Set (TLE):
1 13766U 83002F   18143.48958581 -.00000010 +00000-0 +38130-4 0  9992
2 13766 074.0213 164.8353 0023278 012.4841 098.3764 12.53774583617741
Source of the keplerian elements: AFSPC